#timestamp,LO_Frequency,Hit,StdDev 
1575381615.8,286047002.8,N
1575381635.7,286047000.9,N
1575381655.5,286046999.7,N
1575381675.3,286047002.8,N
1575381695.2,286047001.1,N
1575381715.0,286047001.2,N
1575381715.9,286047001.2,N
1575381735.8,286047000.3,N
1575381755.6,286046999.9,N
1575381775.4,286047002.8,N
1575381795.3,286047000.1,N
1575381815.1,286047000.4,N
1575381835.8,286047000.6,N
1575381855.7,286047002.8,N
1575381875.5,286046998.8,N
1575381895.4,286047002.6,N
1575381915.2,286047000.6,N
1575381935.0,286047001.1,N
1575381935.9,286047001.1,N
1575381955.8,286047001.6,N
1575381975.6,286047000.9,N
1575381995.4,286046999.1,N
1575382015.3,286047002.4,N
1575382035.1,286047002.0,N
1575382055.9,286047001.5,N
1575382075.7,286046999.7,N
1575382095.5,286047000.9,N
1575382115.4,286046998.1,N
1575382135.2,286046999.8,N
1575382155.0,286046999.8,N
1575382155.9,286046999.8,N
1575382175.8,286047002.1,N
1575382195.6,286047001.5,N
1575382215.5,286047000.1,N
1575382235.3,286047000.5,N
1575382255.1,286046998.3,N
1575382275.9,286047000.5,N
1575382295.7,286047000.3,N
1575382315.5,286047000.9,N
1575382335.4,286046998.6,N
1575382355.2,286046998.3,N
1575382375.1,286047002.7,N
1575382376.0,286047002.7,N
1575382395.8,286047002.1,N
1575382415.6,286047001.9,N
1575382435.5,286047002.8,N
1575382455.3,286046999.9,N
1575382475.1,286047002.1,N
1575382495.9,286046999.7,N
1575382515.7,286047004.9,Y
1575382535.6,286047004.0,P
1575382555.4,286047002.6,N
1575382575.2,286047002.4,N
1575382595.1,286047001.9,N
1575382596.0,286047001.9,N
1575382615.8,286047001.8,N
1575382635.6,286047002.0,N
1575382655.5,286047005.2,Y
1575382675.3,286047002.1,P
1575382695.2,286046999.8,P
1575382715.9,286046999.9,N
1575382735.7,286046996.9,N
1575382755.6,286046997.4,N
1575382775.4,286046997.5,N
1575382795.2,286046999.5,N
1575382815.1,286046997.8,N
1575382816.0,286046997.8,N
1575382835.8,286046995.5,N
1575382855.7,286046995.2,N
1575382875.5,286046994.9,N
1575382895.3,286046997.5,N
1575382915.2,286046996.9,N
1575382935.0,286046997.0,N
1575382935.9,286046997.0,N
1575382955.7,286046997.0,N
1575382975.6,286046998.5,N
1575382995.4,286046997.1,N
1575383015.3,286046998.9,N
1575383035.1,286046996.6,N
1575383036.0,286046996.6,N
1575383055.8,286047000.0,N
1575383075.7,286047003.2,N
1575383095.5,286047003.1,N
1575383115.3,286047003.4,N
1575383135.2,286047003.5,N
1575383155.0,286046999.9,N
1575383155.9,286046999.9,N
1575383175.8,286047001.0,N
1575383195.6,286047000.5,N
1575383215.4,286047001.4,N
1575383235.3,286047002.8,N
1575383255.1,286046998.6,N
1575383275.9,286046998.6,N
1575383295.7,286046998.8,N
1575383315.5,286046997.1,N
1575383335.4,286046997.4,N
1575383355.2,286046995.3,N
1575383375.0,286046996.6,N
1575383375.9,286046996.6,N
1575383395.8,286046999.7,N
1575383415.6,286047002.8,N
1575383435.5,286047001.2,N
1575383455.3,286046997.1,N
1575383475.1,286046997.1,N
1575383495.9,286046996.7,N
1575383515.7,286046995.7,N
1575383535.5,286046997.7,N
1575383555.4,286047001.1,N
1575383575.2,286046998.6,N
1575383595.1,286046997.7,N
1575383596.0,286046997.7,N
1575383615.8,286046997.8,N
1575383635.6,286046997.7,N
1575383655.5,286046995.0,N
1575383675.3,286046997.0,N
1575383695.2,286046997.0,N
1575383715.9,286046997.0,N
1575383735.7,286046999.2,N
1575383755.6,286046997.3,N
1575383775.4,286046996.8,N
1575383795.3,286046999.3,N
1575383815.1,286046999.1,N
1575383816.0,286046999.1,N
1575383835.8,286046998.7,N
1575383855.7,286046999.2,N
1575383875.5,286046997.9,N
1575383895.4,286046994.7,Y
1575383915.2,286046997.8,P
1575383935.0,286046997.7,P
1575383935.9,286046997.7,P
1575383955.8,286046999.2,Y
1575383975.6,286047000.2,P
1575383995.4,286047000.0,N
1575384015.3,286046998.4,N
1575384035.1,286046998.4,N
1575384055.9,286046996.9,Y
1575384075.7,286046999.4,P
1575384095.5,286046998.8,P
1575384115.4,286047001.6,P
1575384135.2,286047000.9,N
1575384155.1,286046998.9,N
1575384156.0,286046998.9,N
1575384175.8,286046996.6,Y
1575384195.6,286047000.4,P
1575384215.5,286046998.4,P
1575384235.3,286046999.5,N
1575384255.2,286046997.3,Y
1575384275.9,286046998.9,P
1575384295.7,286046999.0,P
1575384315.6,286046996.6,P
1575384335.4,286046995.3,Y
1575384355.3,286046996.7,P
1575384375.1,286046999.2,N
1575384376.0,286046999.2,N
1575384395.8,286046996.8,Y
1575384415.7,286047001.2,P
1575384435.5,286047002.3,N
1575384455.3,286047001.1,N
1575384475.2,286046998.5,N
1575384495.0,286047000.1,N
1575384495.9,286047000.1,N
1575384515.8,286047001.5,N
1575384535.6,286046999.7,N
1575384555.4,286046998.6,N
1575384575.3,286047004.4,Y
1575384595.1,286047004.4,P
1575384615.8,286047004.1,N
1575384635.7,286047003.5,N
1575384655.5,286047001.9,N
1575384675.4,286047001.1,N
1575384695.2,286047002.6,N
1575384715.0,286046999.8,N
1575384715.9,286046999.8,N
1575384735.8,286047002.8,N
1575384755.6,286047002.8,N
1575384775.5,286047006.0,Y
1575384795.3,286047001.9,P
1575384815.1,286047002.8,P
1575384835.9,286046998.5,P
1575384855.7,286046999.2,N
1575384875.5,286046997.5,N
1575384895.4,286046997.6,N
1575384915.2,286046997.1,N
1575384935.0,286046999.3,N
1575384936.0,286046999.3,N
1575384955.8,286047000.5,N
1575384975.6,286047004.0,N
1575384995.5,286047002.4,N
1575385015.3,286047002.0,N
1575385035.1,286047003.5,N
1575385055.9,286047002.9,N
1575385075.7,286047004.3,N
1575385095.5,286047002.7,N
1575385115.4,286047002.5,N
1575385135.2,286046998.9,N
1575385155.1,286046999.5,N
1575385156.0,286046999.5,N
1575385175.8,286046999.0,N
1575385195.6,286046997.0,N
